This is the latest recevied weather packets stored in our database for station/object N8BAP. If no packets are shown the sender has not sent any weather packets the latest 10 day(s).
| Time | Temp. | Humidity | Pressure | Rain* | Wind** | Luminosity | Snow |
|---|---|---|---|---|---|---|---|
| 1778252522 | 16.11° C | 52% | 1019.7 hPa | 0 mm | - | 742 W/m² | - |
| 1778252218 | 16.11° C | 51% | 1019.5 hPa | 0 mm | - | 747 W/m² | - |
| 1778251914 | 15.56° C | 53% | 1019.8 hPa | 0 mm | - | 756 W/m² | - |
| 1778251310 | 15° C | 52% | 1019.9 hPa | 0 mm | - | 706 W/m² | - |
| 1778251007 | 15° C | 53% | 1019.7 hPa | 0 mm | - | 708 W/m² | - |
| 1778250704 | 15° C | 49% | 1019.8 hPa | 0 mm | - | 652 W/m² | - |
| 1778250400 | 15° C | 53% | 1019.9 hPa | 0 mm | - | 626 W/m² | - |
| 1778250097 | 15° C | 54% | 1019.7 hPa | 0 mm | - | 592 W/m² | - |
| 1778249793 | 13.89° C | 53% | 1019.9 hPa | 0 mm | - | 614 W/m² | - |
| 1778249491 | 13.89° C | 55% | 1020.1 hPa | 0 mm | - | 554 W/m² | - |
| 1778249188 | 13.89° C | 55% | 1020 hPa | 0 mm | - | 633 W/m² | - |
| 1778248885 | 12.78° C | 56% | 1020 hPa | 0 mm | - | 632 W/m² | - |
| 1778248581 | 12.78° C | 57% | 1020.1 hPa | 0 mm | - | 526 W/m² | - |
| 1778248277 | 12.22° C | 58% | 1020.2 hPa | 0 mm | - | 218 W/m² | - |
| 1778247974 | 12.22° C | 59% | 1020.2 hPa | 0 mm | - | 219 W/m² | - |
| 1778247671 | 12.22° C | 59% | 1020 hPa | 0 mm | - | 211 W/m² | - |
| 1778247368 | 12.78° C | 58% | 1020.1 hPa | 0 mm | - | 384 W/m² | - |
| 1778247065 | 12.78° C | 59% | 1020.1 hPa | 0 mm | - | 382 W/m² | - |
| 1778246763 | 12.78° C | 57% | 1020 hPa | 0 mm | - | 202 W/m² | - |
| 1778246460 | 12.22° C | 59% | 1020.1 hPa | 0 mm | - | 474 W/m² | - |
| 1778246155 | 11.67° C | 58% | 1020 hPa | 0 mm | - | 346 W/m² | - |
| 1778245852 | 11.11° C | 62% | 1020 hPa | 0 mm | - | 216 W/m² | - |
| 1778245549 | 10.56° C | 62% | 1020.1 hPa | 0 mm | - | 331 W/m² | - |
| 1778245245 | 10° C | 64% | 1020 hPa | 0 mm | - | 169 W/m² | - |
| 1778244941 | 10° C | 65% | 1020 hPa | 0 mm | - | 256 W/m² | - |
* Rain latest hour (hover to see other rain measurements)
** Current wind speed in m/s (hover to see current wind gust speed)